Location: Les Salelles
(44.4192°N, 4.1044°E)
Time: 19:04:35
(UTC+00:00)

Okean O Rocket - Pass Details

Date: 20 January 2021
Orbit: 622 x 645 km, 98.2° (Epoch: 04 March)

Event Time Altitude Azimuth Distance (km) Brightness Sun altitude
Rises 18:09:26 0° 195° (SSW) 2,942 5.4 -16.4°
Reaches altitude 10° 18:11:57 10° 208° (SSW) 2,036 4.7 -16.8°
Maximum altitude 18:15:39 26° 265° (W) 1,274 4.0 -17.5°
Drops below altitude 10° 18:19:23 10° 322° (NW) 2,042 4.6 -18.1°
Sets 18:21:55 0° 335° (NNW) 2,953 5.2 -18.6°
